TimePDT,TemperatureF,Dew PointF,Humidity,Sea Level PressureIn,VisibilityMPH,Wind Direction,Wind SpeedMPH,Gust SpeedMPH,PrecipitationIn,Events,Conditions,WindDirDegrees,DateUTC
12:56 AM,57.0,41.0,55,30.01,10.0,Calm,Calm,-,N/A,,Clear,0,2013-09-27 07:56:00
1:56 AM,55.0,41.0,59,30.03,10.0,Calm,Calm,-,N/A,,Clear,0,2013-09-27 08:56:00
2:56 AM,53.1,41.0,64,30.04,10.0,Calm,Calm,-,N/A,,Clear,0,2013-09-27 09:56:00
3:56 AM,53.1,42.1,66,30.04,10.0,Calm,Calm,-,N/A,,Clear,0,2013-09-27 10:56:00
4:56 AM,53.1,42.1,66,30.04,10.0,Calm,Calm,-,N/A,,Clear,0,2013-09-27 11:56:00
5:56 AM,52.0,43.0,71,30.06,10.0,Calm,Calm,-,N/A,,Clear,0,2013-09-27 12:56:00
6:56 AM,52.0,42.1,69,30.08,10.0,Calm,Calm,-,N/A,,Clear,0,2013-09-27 13:56:00
7:56 AM,53.1,43.0,69,30.10,10.0,Calm,Calm,-,N/A,,Clear,0,2013-09-27 14:56:00
8:56 AM,60.1,43.0,53,30.11,10.0,Calm,Calm,-,N/A,,Clear,0,2013-09-27 15:56:00
9:56 AM,66.9,37.0,33,30.12,10.0,WNW,4.6,-,N/A,,Clear,300,2013-09-27 16:56:00
10:56 AM,69.1,34.0,27,30.12,10.0,Calm,Calm,-,N/A,,Clear,0,2013-09-27 17:56:00
11:56 AM,73.0,36.0,26,30.11,10.0,Variable,3.5,-,N/A,,Clear,0,2013-09-27 18:56:00
12:56 PM,75.0,36.0,24,30.10,10.0,Calm,Calm,-,N/A,,Clear,0,2013-09-27 19:56:00
1:56 PM,75.9,35.1,23,30.08,10.0,North,3.5,-,N/A,,Clear,350,2013-09-27 20:56:00
2:56 PM,78.1,34.0,20,30.05,10.0,North,8.1,-,N/A,,Clear,350,2013-09-27 21:56:00
3:56 PM,78.1,35.1,21,30.04,10.0,NW,6.9,-,N/A,,Clear,320,2013-09-27 22:56:00
4:56 PM,75.9,41.0,29,30.04,10.0,NNW,12.7,-,N/A,,Clear,340,2013-09-27 23:56:00
5:56 PM,71.1,48.9,45,30.04,10.0,North,16.1,20.7,N/A,,Clear,350,2013-09-28 00:56:00
6:56 PM,68.0,45.0,43,30.05,10.0,NNW,10.4,-,N/A,,Clear,330,2013-09-28 01:56:00
7:56 PM,66.9,37.0,33,30.06,10.0,North,6.9,-,N/A,,Clear,350,2013-09-28 02:56:00
8:56 PM,64.9,37.0,36,30.08,10.0,NNW,3.5,-,N/A,,Clear,340,2013-09-28 03:56:00
9:56 PM,64.0,42.1,45,30.09,10.0,Calm,Calm,-,N/A,,Clear,0,2013-09-28 04:56:00
10:56 PM,62.1,42.1,48,30.09,10.0,South,3.5,-,N/A,,Clear,180,2013-09-28 05:56:00
11:56 PM,60.1,39.9,47,30.08,10.0,Calm,Calm,-,N/A,,Clear,0,2013-09-28 06:56:00